Location: Asheville, NC
(35.6000°N, 82.5500°W)
Time: 19:26:10
(UTC-04:00)

CUTE-I - Pass Details

Date: 12 February 2018
Orbit: 810 x 826 km, 98.7° (Epoch: 27 May)

Event Time Altitude Azimuth Distance (km) Brightness Sun altitude
Rises 05:45:48 0° 31° (NNE) 3,355 ? -19.7°
Reaches altitude 10° 05:48:50 10° 49° (NE) 2,420 ? -19.1°
Maximum altitude 05:52:37 20° 94° (E) 1,840 ? -18.3°
Drops below altitude 10° 05:56:24 10° 140° (SE) 2,415 ? -17.5°
Sets 05:59:24 0° 157° (SSE) 3,345 ? -16.9°
